Time,TemperatureF,DewpointF,PressureIn,WindDirection,WindDirectionDegrees,WindSpeedMPH,WindSpeedGustMPH,Humidity,HourlyPrecipIn,Conditions,Clouds,dailyrainin,SolarRadiationWatts/m^2,SoftwareType,DateUTC
2013-01-06 00:00:00,24.5,14.4,30.35,South,173,0.0,12.0,65,0.00,,,0.00,0,Wunderground v.1.15,2013-01-06 07:00:00,
2013-01-06 00:05:00,24.2,14.5,30.34,South,173,0.0,12.0,66,0.00,,,0.00,0,Wunderground v.1.15,2013-01-06 07:05:00,
2013-01-06 00:10:00,24.1,14.4,30.34,South,173,1.0,12.0,66,0.00,,,0.00,0,Wunderground v.1.15,2013-01-06 07:10:00,
2013-01-06 00:15:00,23.7,14.3,30.34,South,173,1.0,12.0,67,0.00,,,0.00,0,Wunderground v.1.15,2013-01-06 07:15:00,
2013-01-06 00:20:00,23.3,14.3,30.34,South,173,1.0,12.0,68,0.00,,,0.00,0,Wunderground v.1.15,2013-01-06 07:20:00,
2013-01-06 00:30:00,22.8,14.1,30.34,South,173,1.0,12.0,69,0.00,,,0.00,0,Wunderground v.1.15,2013-01-06 07:30:00,
2013-01-06 00:35:00,22.7,14.4,30.34,South,173,1.0,12.0,70,0.00,,,0.00,0,Wunderground v.1.15,2013-01-06 07:35:00,
2013-01-06 00:40:00,22.5,14.2,30.34,South,173,0.0,12.0,70,0.00,,,0.00,0,Wunderground v.1.15,2013-01-06 07:40:00,
2013-01-06 00:45:00,22.3,14.0,30.34,South,173,0.0,12.0,70,0.00,,,0.00,0,Wunderground v.1.15,2013-01-06 07:45:00,
2013-01-06 00:50:00,22.1,14.1,30.34,South,173,0.0,12.0,71,0.00,,,0.00,0,Wunderground v.1.15,2013-01-06 07:50:00,
2013-01-06 01:00:00,22.0,14.0,30.34,South,173,1.0,12.0,71,0.00,,,0.00,0,Wunderground v.1.15,2013-01-06 08:00:00,
2013-01-06 01:05:00,21.8,13.8,30.34,South,173,0.0,12.0,71,0.00,,,0.00,0,Wunderground v.1.15,2013-01-06 08:05:00,
2013-01-06 01:10:00,21.6,13.6,30.34,South,173,0.0,12.0,71,0.00,,,0.00,0,Wunderground v.1.15,2013-01-06 08:10:00,
2013-01-06 01:15:00,21.5,13.5,30.34,South,173,1.0,12.0,71,0.00,,,0.00,0,Wunderground v.1.15,2013-01-06 08:15:00,
2013-01-06 01:20:00,21.2,13.3,30.34,South,173,0.0,12.0,71,0.00,,,0.00,0,Wunderground v.1.15,2013-01-06 08:20:00,
2013-01-06 01:25:00,20.9,13.0,30.34,South,173,0.0,12.0,71,0.00,,,0.00,0,Wunderground v.1.15,2013-01-06 08:25:00,
2013-01-06 01:35:00,20.9,13.0,30.33,South,173,0.0,12.0,71,0.00,,,0.00,0,Wunderground v.1.15,2013-01-06 08:35:00,
2013-01-06 01:45:00,21.6,13.6,30.34,South,173,0.0,12.0,71,0.00,,,0.00,0,Wunderground v.1.15,2013-01-06 08:45:00,
2013-01-06 01:50:00,21.8,13.8,30.34,South,173,0.0,12.0,71,0.00,,,0.00,0,Wunderground v.1.15,2013-01-06 08:50:00,
2013-01-06 01:55:00,22.2,13.9,30.33,South,173,1.0,12.0,70,0.00,,,0.00,0,Wunderground v.1.15,2013-01-06 08:55:00,
2013-01-06 02:05:00,22.1,13.5,30.33,South,173,1.0,12.0,69,0.00,,,0.00,0,Wunderground v.1.15,2013-01-06 09:05:00,
2013-01-06 02:10:00,21.7,13.4,30.33,South,173,0.0,12.0,70,0.00,,,0.00,0,Wunderground v.1.15,2013-01-06 09:10:00,
2013-01-06 02:15:00,21.4,13.1,30.33,South,173,0.0,12.0,70,0.00,,,0.00,0,Wunderground v.1.15,2013-01-06 09:15:00,
2013-01-06 02:20:00,21.0,12.4,30.34,South,173,0.0,12.0,69,0.00,,,0.00,0,Wunderground v.1.15,2013-01-06 09:20:00,
2013-01-06 02:25:00,20.7,12.1,30.34,South,173,0.0,12.0,69,0.00,,,0.00,0,Wunderground v.1.15,2013-01-06 09:25:00,
2013-01-06 02:35:00,20.1,12.2,30.34,South,173,1.0,12.0,71,0.00,,,0.00,0,Wunderground v.1.15,2013-01-06 09:35:00,
2013-01-06 02:45:00,21.2,12.6,30.33,South,173,2.0,12.0,69,0.00,,,0.00,0,Wunderground v.1.15,2013-01-06 09:45:00,
2013-01-06 02:50:00,21.2,11.9,30.33,South,173,2.0,2.0,67,0.00,,,0.00,0,Wunderground v.1.15,2013-01-06 09:50:00,
2013-01-06 02:55:00,20.5,11.6,30.33,South,173,1.0,12.0,68,0.00,,,0.00,0,Wunderground v.1.15,2013-01-06 09:55:00,
2013-01-06 03:00:00,20.0,11.5,30.33,South,173,1.0,12.0,69,0.00,,,0.00,0,Wunderground v.1.15,2013-01-06 10:00:00,
2013-01-06 03:10:00,20.3,11.4,30.33,South,173,1.0,12.0,68,0.00,,,0.00,0,Wunderground v.1.15,2013-01-06 10:10:00,
2013-01-06 03:15:00,20.3,11.4,30.33,South,173,1.0,12.0,68,0.00,,,0.00,0,Wunderground v.1.15,2013-01-06 10:15:00,
2013-01-06 03:20:00,20.1,11.2,30.32,South,173,1.0,12.0,68,0.00,,,0.00,0,Wunderground v.1.15,2013-01-06 10:20:00,
2013-01-06 03:25:00,20.2,11.3,30.32,South,173,1.0,12.0,68,0.00,,,0.00,0,Wunderground v.1.15,2013-01-06 10:25:00,
2013-01-06 03:30:00,19.9,11.0,30.32,South,173,2.0,12.0,68,0.00,,,0.00,0,Wunderground v.1.15,2013-01-06 10:30:00,
2013-01-06 03:35:00,19.5,11.0,30.32,South,173,2.0,12.0,69,0.00,,,0.00,0,Wunderground v.1.15,2013-01-06 10:35:00,
2013-01-06 03:45:00,18.6,10.8,30.32,South,173,1.0,12.0,71,0.00,,,0.00,0,Wunderground v.1.15,2013-01-06 10:45:00,
2013-01-06 03:50:00,18.4,10.6,30.32,South,173,1.0,1.0,71,0.00,,,0.00,0,Wunderground v.1.15,2013-01-06 10:50:00,
2013-01-06 03:55:00,18.1,10.3,30.32,South,173,1.0,12.0,71,0.00,,,0.00,0,Wunderground v.1.15,2013-01-06 10:55:00,
2013-01-06 04:00:00,17.8,10.3,30.32,South,173,1.0,12.0,72,0.00,,,0.00,0,Wunderground v.1.15,2013-01-06 11:00:00,
2013-01-06 04:10:00,17.9,10.4,30.31,South,173,1.0,12.0,72,0.00,,,0.00,0,Wunderground v.1.15,2013-01-06 11:10:00,
2013-01-06 04:15:00,17.9,10.1,30.31,South,173,2.0,12.0,71,0.00,,,0.00,0,Wunderground v.1.15,2013-01-06 11:15:00,
2013-01-06 04:20:00,18.1,10.3,30.31,South,173,2.0,12.0,71,0.00,,,0.00,0,Wunderground v.1.15,2013-01-06 11:20:00,
2013-01-06 04:25:00,18.0,9.9,30.31,South,173,1.0,12.0,70,0.00,,,0.00,0,Wunderground v.1.15,2013-01-06 11:25:00,
2013-01-06 04:30:00,17.7,9.9,30.31,South,173,1.0,1.0,71,0.00,,,0.00,0,Wunderground v.1.15,2013-01-06 11:30:00,
2013-01-06 04:35:00,17.6,9.8,30.31,South,173,1.0,12.0,71,0.00,,,0.00,0,Wunderground v.1.15,2013-01-06 11:35:00,
2013-01-06 04:45:00,17.4,9.6,30.30,South,173,1.0,12.0,71,0.00,,,0.00,0,Wunderground v.1.15,2013-01-06 11:45:00,
2013-01-06 04:50:00,17.2,9.4,30.30,South,173,1.0,12.0,71,0.00,,,0.00,0,Wunderground v.1.15,2013-01-06 11:50:00,
2013-01-06 04:55:00,17.1,9.6,30.30,South,173,1.0,12.0,72,0.00,,,0.00,0,Wunderground v.1.15,2013-01-06 11:55:00,
2013-01-06 05:00:00,17.1,9.3,30.30,South,173,0.0,12.0,71,0.00,,,0.00,0,Wunderground v.1.15,2013-01-06 12:00:00,
2013-01-06 05:05:00,17.3,9.5,30.30,South,173,0.0,12.0,71,0.00,,,0.00,0,Wunderground v.1.15,2013-01-06 12:05:00,
2013-01-06 05:15:00,17.1,9.3,30.30,South,173,1.0,12.0,71,0.00,,,0.00,0,Wunderground v.1.15,2013-01-06 12:15:00,
2013-01-06 05:20:00,16.9,9.1,30.30,South,173,1.0,12.0,71,0.00,,,0.00,0,Wunderground v.1.15,2013-01-06 12:20:00,
2013-01-06 05:25:00,17.1,9.6,30.30,South,173,2.0,12.0,72,0.00,,,0.00,0,Wunderground v.1.15,2013-01-06 12:25:00,
2013-01-06 05:30:00,17.3,9.2,30.30,South,173,2.0,2.0,70,0.00,,,0.00,0,Wunderground v.1.15,2013-01-06 12:30:00,
2013-01-06 05:35:00,17.1,9.0,30.30,South,173,1.0,12.0,70,0.00,,,0.00,0,Wunderground v.1.15,2013-01-06 12:35:00,
2013-01-06 05:40:00,16.9,8.8,30.29,South,173,1.0,12.0,70,0.00,,,0.00,0,Wunderground v.1.15,2013-01-06 12:40:00,
2013-01-06 05:50:00,16.4,8.3,30.29,South,173,1.0,12.0,70,0.00,,,0.00,0,Wunderground v.1.15,2013-01-06 12:50:00,
2013-01-06 05:55:00,16.0,8.3,30.29,South,173,1.0,12.0,71,0.00,,,0.00,0,Wunderground v.1.15,2013-01-06 12:55:00,
2013-01-06 06:00:00,15.9,8.2,30.29,South,173,1.0,12.0,71,0.00,,,0.00,0,Wunderground v.1.15,2013-01-06 13:00:00,
2013-01-06 06:05:00,16.0,8.3,30.29,South,173,2.0,12.0,71,0.00,,,0.00,0,Wunderground v.1.15,2013-01-06 13:05:00,
2013-01-06 06:10:00,16.1,8.0,30.29,South,173,2.0,12.0,70,0.00,,,0.00,0,Wunderground v.1.15,2013-01-06 13:10:00,
2013-01-06 06:15:00,16.3,7.6,30.29,South,173,2.0,12.0,68,0.00,,,0.00,0,Wunderground v.1.15,2013-01-06 13:15:00,
2013-01-06 06:20:00,16.3,7.6,30.29,South,173,2.0,2.0,68,0.00,,,0.00,0,Wunderground v.1.15,2013-01-06 13:20:00,
2013-01-06 06:30:00,16.2,7.5,30.29,South,173,1.0,12.0,68,0.00,,,0.00,0,Wunderground v.1.15,2013-01-06 13:30:00,
2013-01-06 06:35:00,16.1,7.4,30.29,South,173,1.0,12.0,68,0.00,,,0.00,0,Wunderground v.1.15,2013-01-06 13:35:00,
2013-01-06 06:40:00,15.8,7.4,30.29,South,173,1.0,12.0,69,0.00,,,0.00,0,Wunderground v.1.15,2013-01-06 13:40:00,
2013-01-06 06:50:00,15.7,7.3,30.29,South,173,2.0,12.0,69,0.00,,,0.00,0,Wunderground v.1.15,2013-01-06 13:50:00,
2013-01-06 06:55:00,15.7,7.3,30.29,South,173,1.0,12.0,69,0.00,,,0.00,0,Wunderground v.1.15,2013-01-06 13:55:00,
2013-01-06 07:00:00,16.4,8.6,30.29,South,173,2.0,12.0,71,0.00,,,0.00,0,Wunderground v.1.15,2013-01-06 14:00:00,
2013-01-06 07:05:00,16.7,8.6,30.29,South,173,2.0,12.0,70,0.00,,,0.00,0,Wunderground v.1.15,2013-01-06 14:05:00,
2013-01-06 07:10:00,16.7,8.3,30.29,South,173,2.0,12.0,69,0.00,,,0.00,0,Wunderground v.1.15,2013-01-06 14:10:00,
2013-01-06 07:15:00,17.1,8.3,30.29,South,173,2.0,12.0,68,0.00,,,0.00,0,Wunderground v.1.15,2013-01-06 14:15:00,
2013-01-06 07:20:00,17.5,8.1,30.29,South,173,3.0,3.0,66,0.00,,,0.00,5,Wunderground v.1.15,2013-01-06 14:20:00,
2013-01-06 07:30:00,17.6,7.5,30.29,South,173,3.0,12.0,64,0.00,,,0.00,7,Wunderground v.1.15,2013-01-06 14:30:00,
2013-01-06 07:35:00,17.9,7.4,30.29,South,174,4.0,12.0,63,0.00,,,0.00,9,Wunderground v.1.15,2013-01-06 14:35:00,
2013-01-06 07:40:00,17.9,7.1,30.29,South,174,3.0,3.0,62,0.00,,,0.00,11,Wunderground v.1.15,2013-01-06 14:40:00,
2013-01-06 07:45:00,17.2,6.8,30.29,South,174,1.0,12.0,63,0.00,,,0.00,14,Wunderground v.1.15,2013-01-06 14:45:00,
2013-01-06 07:55:00,17.7,7.2,30.28,South,174,2.0,12.0,63,0.00,,,0.00,53,Wunderground v.1.15,2013-01-06 14:55:00,
2013-01-06 08:00:00,18.2,7.3,30.28,South,174,2.0,12.0,62,0.00,,,0.00,67,Wunderground v.1.15,2013-01-06 15:00:00,
2013-01-06 08:05:00,18.3,7.4,30.28,South,174,2.0,12.0,62,0.00,,,0.00,79,Wunderground v.1.15,2013-01-06 15:05:00,
2013-01-06 08:10:00,18.7,7.1,30.28,South,174,2.0,2.0,60,0.00,,,0.00,91,Wunderground v.1.15,2013-01-06 15:10:00,
2013-01-06 08:15:00,18.6,7.4,30.28,South,174,2.0,12.0,61,0.00,,,0.00,105,Wunderground v.1.15,2013-01-06 15:15:00,
2013-01-06 08:25:00,19.6,8.0,30.28,South,174,2.0,12.0,60,0.00,,,0.00,128,Wunderground v.1.15,2013-01-06 15:25:00,
2013-01-06 08:30:00,19.8,8.1,30.28,South,174,2.0,2.0,60,0.00,,,0.00,139,Wunderground v.1.15,2013-01-06 15:30:00,
2013-01-06 08:35:00,20.4,8.3,30.28,South,174,2.0,12.0,59,0.00,,,0.00,153,Wunderground v.1.15,2013-01-06 15:35:00,
2013-01-06 08:45:00,21.8,9.3,30.27,South,174,2.0,12.0,58,0.00,,,0.00,178,Wunderground v.1.15,2013-01-06 15:45:00,
2013-01-06 08:55:00,23.7,8.2,30.27,South,173,2.0,12.0,51,0.00,,,0.00,200,Wunderground v.1.15,2013-01-06 15:55:00,
2013-01-06 09:05:00,27.0,6.9,30.27,South,180,4.0,12.0,42,0.00,,,0.00,223,Wunderground v.1.15,2013-01-06 16:05:00,
2013-01-06 09:10:00,28.1,6.8,30.26,South,178,4.0,4.0,40,0.00,,,0.00,236,Wunderground v.1.15,2013-01-06 16:10:00,
2013-01-06 09:15:00,28.8,8.6,30.26,South,178,2.0,12.0,42,0.00,,,0.00,246,Wunderground v.1.15,2013-01-06 16:15:00,
2013-01-06 09:20:00,28.8,10.1,30.26,South,178,1.0,12.0,45,0.00,,,0.00,258,Wunderground v.1.15,2013-01-06 16:20:00,
2013-01-06 09:30:00,29.2,10.0,30.26,South,178,1.0,1.0,44,0.00,,,0.00,281,Wunderground v.1.15,2013-01-06 16:30:00,
2013-01-06 09:35:00,30.1,10.3,30.26,South,178,1.0,12.0,43,0.00,,,0.00,290,Wunderground v.1.15,2013-01-06 16:35:00,
2013-01-06 09:40:00,30.8,8.7,30.26,South,178,1.0,12.0,39,0.00,,,0.00,301,Wunderground v.1.15,2013-01-06 16:40:00,
2013-01-06 09:45:00,31.9,7.3,30.26,South,182,2.0,12.0,35,0.00,,,0.00,311,Wunderground v.1.15,2013-01-06 16:45:00,
2013-01-06 09:50:00,32.5,5.2,30.25,South,182,3.0,3.0,31,0.00,,,0.00,322,Wunderground v.1.15,2013-01-06 16:50:00,
2013-01-06 09:55:00,33.4,6.7,30.25,South,186,2.0,12.0,32,0.00,,,0.00,332,Wunderground v.1.15,2013-01-06 16:55:00,
2013-01-06 10:05:00,35.0,5.1,30.25,South,186,2.0,12.0,28,0.00,,,0.00,348,Wunderground v.1.15,2013-01-06 17:05:00,
2013-01-06 10:10:00,35.9,6.7,30.24,South,186,1.0,1.0,29,0.00,,,0.00,359,Wunderground v.1.15,2013-01-06 17:10:00,
2013-01-06 10:15:00,37.0,8.4,30.24,South,187,1.0,12.0,30,0.00,,,0.00,367,Wunderground v.1.15,2013-01-06 17:15:00,
2013-01-06 10:20:00,37.2,7.0,30.24,South,187,0.0,12.0,28,0.00,,,0.00,376,Wunderground v.1.15,2013-01-06 17:20:00,
2013-01-06 10:30:00,39.3,5.5,30.23,South,187,0.0,12.0,24,0.00,,,0.00,394,Wunderground v.1.15,2013-01-06 17:30:00,
2013-01-06 10:35:00,39.9,5.0,30.22,South,187,0.0,12.0,23,0.00,,,0.00,401,Wunderground v.1.15,2013-01-06 17:35:00,
2013-01-06 10:40:00,40.6,5.6,30.22,South,187,0.0,12.0,23,0.00,,,0.00,394,Wunderground v.1.15,2013-01-06 17:40:00,
2013-01-06 10:45:00,41.6,6.5,30.21,South,187,0.0,12.0,23,0.00,,,0.00,410,Wunderground v.1.15,2013-01-06 17:45:00,
2013-01-06 10:50:00,42.2,5.0,30.21,South,187,0.0,12.0,21,0.00,,,0.00,422,Wunderground v.1.15,2013-01-06 17:50:00,
2013-01-06 10:55:00,42.4,4.1,30.21,South,187,0.0,12.0,20,0.00,,,0.00,427,Wunderground v.1.15,2013-01-06 17:55:00,
2013-01-06 11:05:00,43.8,4.1,30.20,South,187,0.0,12.0,19,0.00,,,0.00,436,Wunderground v.1.15,2013-01-06 18:05:00,
2013-01-06 11:10:00,44.9,2.6,30.19,South,187,0.0,12.0,17,0.00,,,0.00,443,Wunderground v.1.15,2013-01-06 18:10:00,
2013-01-06 11:15:00,46.0,2.2,30.18,South,187,0.0,12.0,16,0.00,,,0.00,441,Wunderground v.1.15,2013-01-06 18:15:00,
2013-01-06 11:20:00,47.3,3.3,30.18,South,187,0.0,12.0,16,0.00,,,0.00,450,Wunderground v.1.15,2013-01-06 18:20:00,
2013-01-06 11:25:00,49.2,-1.4,30.17,South,187,0.0,12.0,12,0.00,,,0.00,455,Wunderground v.1.15,2013-01-06 18:25:00,
2013-01-06 11:35:00,50.4,-4.3,30.17,South,187,0.0,12.0,10,0.00,,,0.00,461,Wunderground v.1.15,2013-01-06 18:35:00,
2013-01-06 11:40:00,51.6,-3.3,30.16,South,187,0.0,12.0,10,0.00,,,0.00,455,Wunderground v.1.15,2013-01-06 18:40:00,
2013-01-06 11:45:00,51.5,-3.4,30.15,South,187,1.0,12.0,10,0.00,,,0.00,471,Wunderground v.1.15,2013-01-06 18:45:00,
2013-01-06 11:50:00,50.2,-6.6,30.15,SSW,213,1.0,12.0,9,0.00,,,0.00,475,Wunderground v.1.15,2013-01-06 18:50:00,
2013-01-06 11:55:00,50.3,-4.3,30.14,WSW,243,1.0,12.0,10,0.00,,,0.00,466,Wunderground v.1.15,2013-01-06 18:55:00,
2013-01-06 12:05:00,49.8,-6.9,30.14,WSW,244,1.0,12.0,9,0.00,,,0.00,436,Wunderground v.1.15,2013-01-06 19:05:00,
2013-01-06 12:10:00,50.4,-4.3,30.13,WSW,244,1.0,1.0,10,0.00,,,0.00,457,Wunderground v.1.15,2013-01-06 19:10:00,
2013-01-06 12:15:00,50.6,-4.1,30.13,NW,314,2.0,2.0,10,0.00,,,0.00,478,Wunderground v.1.15,2013-01-06 19:15:00,
2013-01-06 12:20:00,49.7,-4.8,30.12,NW,321,2.0,2.0,10,0.00,,,0.00,478,Wunderground v.1.15,2013-01-06 19:20:00,
2013-01-06 12:25:00,48.6,-3.7,30.12,NNW,336,2.0,12.0,11,0.00,,,0.00,483,Wunderground v.1.15,2013-01-06 19:25:00,
2013-01-06 12:30:00,48.0,-4.1,30.11,North,355,2.0,12.0,11,0.00,,,0.00,476,Wunderground v.1.15,2013-01-06 19:30:00,
2013-01-06 12:40:00,46.7,-5.2,30.10,NE,34,4.0,12.0,11,0.00,,,0.00,374,Wunderground v.1.15,2013-01-06 19:40:00,
2013-01-06 12:45:00,46.5,-5.3,30.09,NE,36,3.0,12.0,11,0.00,,,0.00,471,Wunderground v.1.15,2013-01-06 19:45:00,
2013-01-06 12:50:00,47.5,-2.7,30.09,NNE,32,2.0,12.0,12,0.00,,,0.00,436,Wunderground v.1.15,2013-01-06 19:50:00,
2013-01-06 13:01:00,48.0,-2.3,30.08,NNE,16,2.0,2.0,12,0.00,,,0.00,383,Wunderground v.1.15,2013-01-06 20:01:00,
2013-01-06 13:10:00,48.3,-2.1,30.08,NNE,29,3.0,12.0,12,0.00,,,0.00,450,Wunderground v.1.15,2013-01-06 20:10:00,
2013-01-06 13:15:00,48.1,-2.2,30.08,NNE,29,3.0,12.0,12,0.00,,,0.00,411,Wunderground v.1.15,2013-01-06 20:15:00,
2013-01-06 13:20:00,48.1,-2.2,30.07,NNE,30,2.0,12.0,12,0.00,,,0.00,420,Wunderground v.1.15,2013-01-06 20:20:00,
2013-01-06 13:25:00,48.2,-2.1,30.07,NNE,31,2.0,12.0,12,0.00,,,0.00,424,Wunderground v.1.15,2013-01-06 20:25:00,
2013-01-06 13:30:00,48.7,-3.6,30.06,NNE,31,2.0,12.0,11,0.00,,,0.00,411,Wunderground v.1.15,2013-01-06 20:30:00,
2013-01-06 13:35:00,49.1,-3.3,30.06,NNE,31,2.0,12.0,11,0.00,,,0.00,448,Wunderground v.1.15,2013-01-06 20:35:00,
2013-01-06 13:40:00,49.3,-5.1,30.06,NNE,32,2.0,12.0,10,0.00,,,0.00,457,Wunderground v.1.15,2013-01-06 20:40:00,
2013-01-06 13:50:00,50.2,-0.6,30.05,NNE,16,3.0,12.0,12,0.00,,,0.00,364,Wunderground v.1.15,2013-01-06 20:50:00,
2013-01-06 13:55:00,49.6,0.7,30.05,NNE,22,3.0,12.0,13,0.00,,,0.00,327,Wunderground v.1.15,2013-01-06 20:55:00,
2013-01-06 14:00:00,49.5,0.6,30.04,NE,37,3.0,3.0,13,0.00,,,0.00,279,Wunderground v.1.15,2013-01-06 21:00:00,
2013-01-06 14:10:00,49.1,1.9,30.04,North,9,3.0,12.0,14,0.00,,,0.00,267,Wunderground v.1.15,2013-01-06 21:10:00,
2013-01-06 14:15:00,49.2,3.4,30.04,North,9,2.0,12.0,15,0.00,,,0.00,318,Wunderground v.1.15,2013-01-06 21:15:00,
2013-01-06 14:20:00,49.3,3.5,30.04,NNE,17,2.0,12.0,15,0.00,,,0.00,269,Wunderground v.1.15,2013-01-06 21:20:00,
2013-01-06 14:25:00,49.6,3.8,30.04,North,355,2.0,12.0,15,0.00,,,0.00,260,Wunderground v.1.15,2013-01-06 21:25:00,
2013-01-06 14:30:00,49.9,2.5,30.04,North,351,1.0,1.0,14,0.00,,,0.00,308,Wunderground v.1.15,2013-01-06 21:30:00,
2013-01-06 14:35:00,50.3,2.8,30.04,North,355,2.0,3.0,14,0.00,,,0.00,258,Wunderground v.1.15,2013-01-06 21:35:00,
2013-01-06 14:40:00,50.4,4.4,30.03,NNE,30,3.0,12.0,15,0.00,,,0.00,269,Wunderground v.1.15,2013-01-06 21:40:00,
2013-01-06 14:50:00,50.0,5.5,30.03,NNE,31,3.0,12.0,16,0.00,,,0.00,209,Wunderground v.1.15,2013-01-06 21:50:00,
2013-01-06 14:55:00,49.5,6.4,30.03,NNW,344,3.0,12.0,17,0.00,,,0.00,141,Wunderground v.1.15,2013-01-06 21:55:00,
2013-01-06 15:00:00,49.2,7.4,30.03,NNE,13,3.0,3.0,18,0.00,,,0.00,185,Wunderground v.1.15,2013-01-06 22:00:00,
2013-01-06 15:05:00,49.0,7.3,30.03,NNE,12,2.0,12.0,18,0.00,,,0.00,165,Wunderground v.1.15,2013-01-06 22:05:00,
2013-01-06 15:10:00,49.0,8.5,30.03,NNE,18,2.0,2.0,19,0.00,,,0.00,155,Wunderground v.1.15,2013-01-06 22:10:00,
2013-01-06 15:15:00,48.7,9.4,30.02,NNE,28,2.0,5.0,20,0.00,,,0.00,141,Wunderground v.1.15,2013-01-06 22:15:00,
2013-01-06 15:25:00,48.1,11.0,30.03,NNE,33,2.0,12.0,22,0.00,,,0.00,102,Wunderground v.1.15,2013-01-06 22:25:00,
2013-01-06 15:30:00,47.7,11.6,30.03,NNE,28,2.0,12.0,23,0.00,,,0.00,105,Wunderground v.1.15,2013-01-06 22:30:00,
2013-01-06 15:35:00,47.1,12.1,30.03,NE,38,3.0,12.0,24,0.00,,,0.00,81,Wunderground v.1.15,2013-01-06 22:35:00,
2013-01-06 15:40:00,46.8,11.8,30.03,NNE,30,3.0,12.0,24,0.00,,,0.00,65,Wunderground v.1.15,2013-01-06 22:40:00,
2013-01-06 15:45:00,46.4,11.5,30.03,NNE,26,3.0,12.0,24,0.00,,,0.00,62,Wunderground v.1.15,2013-01-06 22:45:00,
2013-01-06 15:55:00,45.6,12.6,30.02,NNE,28,3.0,12.0,26,0.00,,,0.00,69,Wunderground v.1.15,2013-01-06 22:55:00,
2013-01-06 16:00:00,45.5,13.4,30.02,NNE,15,2.0,12.0,27,0.00,,,0.00,60,Wunderground v.1.15,2013-01-06 23:00:00,
2013-01-06 16:05:00,45.0,13.8,30.02,NNE,26,3.0,12.0,28,0.00,,,0.00,49,Wunderground v.1.15,2013-01-06 23:05:00,
2013-01-06 16:10:00,44.5,14.2,30.02,NNE,30,4.0,4.0,29,0.00,,,0.00,39,Wunderground v.1.15,2013-01-06 23:10:00,
2013-01-06 16:15:00,44.2,14.7,30.02,NNE,33,3.0,12.0,30,0.00,,,0.00,33,Wunderground v.1.15,2013-01-06 23:15:00,
2013-01-06 16:25:00,43.8,14.3,30.02,NNE,32,1.0,12.0,30,0.00,,,0.00,23,Wunderground v.1.15,2013-01-06 23:25:00,
2013-01-06 16:30:00,43.6,14.2,30.02,NNE,32,1.0,12.0,30,0.00,,,0.00,18,Wunderground v.1.15,2013-01-06 23:30:00,
2013-01-06 16:35:00,43.3,14.6,30.02,NNE,32,0.0,12.0,31,0.00,,,0.00,14,Wunderground v.1.15,2013-01-06 23:35:00,
2013-01-06 16:40:00,43.0,14.4,30.02,NNE,32,1.0,12.0,31,0.00,,,0.00,9,Wunderground v.1.15,2013-01-06 23:40:00,
2013-01-06 16:45:00,42.7,14.8,30.02,NNE,32,1.0,12.0,32,0.00,,,0.00,5,Wunderground v.1.15,2013-01-06 23:45:00,
2013-01-06 16:55:00,42.1,15.0,30.02,NNE,32,0.0,12.0,33,0.00,,,0.00,0,Wunderground v.1.15,2013-01-06 23:55:00,
2013-01-06 17:00:00,41.7,15.4,30.03,NNE,32,1.0,12.0,34,0.00,,,0.00,0,Wunderground v.1.15,2013-01-07 00:00:00,
2013-01-06 17:05:00,41.3,15.0,30.02,NNE,30,2.0,12.0,34,0.00,,,0.00,0,Wunderground v.1.15,2013-01-07 00:05:00,
2013-01-06 17:10:00,41.0,14.7,30.02,NNE,31,1.0,1.0,34,0.00,,,0.00,0,Wunderground v.1.15,2013-01-07 00:10:00,
2013-01-06 17:15:00,40.9,14.6,30.02,NNE,31,1.0,12.0,34,0.00,,,0.00,0,Wunderground v.1.15,2013-01-07 00:15:00,
2013-01-06 17:20:00,40.7,14.5,30.02,NNE,31,1.0,1.0,34,0.00,,,0.00,0,Wunderground v.1.15,2013-01-07 00:20:00,
2013-01-06 17:30:00,40.3,14.1,30.02,NNE,30,1.0,1.0,34,0.00,,,0.00,0,Wunderground v.1.15,2013-01-07 00:30:00,
2013-01-06 17:35:00,40.0,13.8,30.02,NNE,30,2.0,4.0,34,0.00,,,0.00,0,Wunderground v.1.15,2013-01-07 00:35:00,
2013-01-06 17:40:00,39.8,13.7,30.02,NNE,30,1.0,12.0,34,0.00,,,0.00,0,Wunderground v.1.15,2013-01-07 00:40:00,
2013-01-06 17:45:00,39.7,14.2,30.02,NNE,30,1.0,12.0,35,0.00,,,0.00,0,Wunderground v.1.15,2013-01-07 00:45:00,
2013-01-06 17:50:00,39.7,14.2,30.02,NNE,30,1.0,12.0,35,0.00,,,0.00,0,Wunderground v.1.15,2013-01-07 00:50:00,
2013-01-06 18:00:00,39.4,13.3,30.02,NNE,30,1.0,12.0,34,0.00,,,0.00,0,Wunderground v.1.15,2013-01-07 01:00:00,
2013-01-06 18:05:00,39.2,13.8,30.03,NNE,30,1.0,12.0,35,0.00,,,0.00,0,Wunderground v.1.15,2013-01-07 01:05:00,
2013-01-06 18:10:00,38.9,14.2,30.02,NNE,30,1.0,12.0,36,0.00,,,0.00,0,Wunderground v.1.15,2013-01-07 01:10:00,
2013-01-06 18:15:00,38.5,13.8,30.02,NNE,30,1.0,12.0,36,0.00,,,0.00,0,Wunderground v.1.15,2013-01-07 01:15:00,
2013-01-06 18:20:00,38.3,14.3,30.02,NNE,30,1.0,1.0,37,0.00,,,0.00,0,Wunderground v.1.15,2013-01-07 01:20:00,
2013-01-06 18:25:00,38.2,14.2,30.02,NNE,30,0.0,12.0,37,0.00,,,0.00,0,Wunderground v.1.15,2013-01-07 01:25:00,
2013-01-06 18:35:00,37.7,14.3,30.02,NNE,30,0.0,12.0,38,0.00,,,0.00,0,Wunderground v.1.15,2013-01-07 01:35:00,
2013-01-06 18:40:00,37.4,14.7,30.02,NNE,30,0.0,12.0,39,0.00,,,0.00,0,Wunderground v.1.15,2013-01-07 01:40:00,
2013-01-06 18:45:00,37.6,14.8,30.02,NNE,30,0.0,12.0,39,0.00,,,0.00,0,Wunderground v.1.15,2013-01-07 01:45:00,
2013-01-06 18:50:00,37.5,15.3,30.02,NNE,30,0.0,12.0,40,0.00,,,0.00,0,Wunderground v.1.15,2013-01-07 01:50:00,
2013-01-06 18:55:00,36.9,15.4,30.02,NNE,30,1.0,12.0,41,0.00,,,0.00,0,Wunderground v.1.15,2013-01-07 01:55:00,
2013-01-06 19:05:00,36.3,15.9,30.01,NNE,30,0.0,12.0,43,0.00,,,0.00,0,Wunderground v.1.15,2013-01-07 02:05:00,
2013-01-06 19:10:00,36.5,16.6,30.02,NNE,30,0.0,12.0,44,0.00,,,0.00,0,Wunderground v.1.15,2013-01-07 02:10:00,
2013-01-06 19:15:00,36.3,16.4,30.01,NNE,30,0.0,12.0,44,0.00,,,0.00,0,Wunderground v.1.15,2013-01-07 02:15:00,
2013-01-06 19:20:00,36.2,16.9,30.00,NNE,30,0.0,12.0,45,0.00,,,0.00,0,Wunderground v.1.15,2013-01-07 02:20:00,
2013-01-06 19:25:00,36.1,16.8,30.01,NNE,30,1.0,12.0,45,0.00,,,0.00,0,Wunderground v.1.15,2013-01-07 02:25:00,
2013-01-06 19:35:00,35.9,17.1,30.01,NNE,29,0.0,12.0,46,0.00,,,0.00,0,Wunderground v.1.15,2013-01-07 02:35:00,
2013-01-06 19:40:00,35.5,17.2,30.01,NNE,29,0.0,12.0,47,0.00,,,0.00,0,Wunderground v.1.15,2013-01-07 02:40:00,
2013-01-06 19:45:00,35.2,17.4,30.01,NNE,30,0.0,12.0,48,0.00,,,0.00,0,Wunderground v.1.15,2013-01-07 02:45:00,
2013-01-06 19:50:00,34.8,17.1,30.01,NNE,29,0.0,12.0,48,0.00,,,0.00,0,Wunderground v.1.15,2013-01-07 02:50:00,
2013-01-06 19:55:00,34.6,17.4,30.01,NNE,30,0.0,12.0,49,0.00,,,0.00,0,Wunderground v.1.15,2013-01-07 02:55:00,
2013-01-06 20:00:00,34.6,17.4,30.01,NNE,30,0.0,12.0,49,0.00,,,0.00,0,Wunderground v.1.15,2013-01-07 03:00:00,
2013-01-06 20:10:00,34.4,17.7,30.01,NNE,30,1.0,12.0,50,0.00,,,0.00,0,Wunderground v.1.15,2013-01-07 03:10:00,
2013-01-06 20:15:00,34.2,17.5,30.01,NE,34,1.0,12.0,50,0.00,,,0.00,0,Wunderground v.1.15,2013-01-07 03:15:00,
2013-01-06 20:20:00,34.1,17.4,30.01,NE,35,1.0,12.0,50,0.00,,,0.00,0,Wunderground v.1.15,2013-01-07 03:20:00,
2013-01-06 20:25:00,34.0,17.3,30.00,NE,41,2.0,12.0,50,0.00,,,0.00,0,Wunderground v.1.15,2013-01-07 03:25:00,
2013-01-06 20:30:00,34.5,17.3,30.01,NE,48,2.0,12.0,49,0.00,,,0.00,0,Wunderground v.1.15,2013-01-07 03:30:00,
2013-01-06 20:40:00,35.1,17.4,30.00,NE,55,2.0,12.0,48,0.00,,,0.00,0,Wunderground v.1.15,2013-01-07 03:40:00,
2013-01-06 20:45:00,35.1,17.8,30.00,NE,55,2.0,12.0,49,0.00,,,0.00,0,Wunderground v.1.15,2013-01-07 03:45:00,
2013-01-06 20:50:00,34.6,17.8,30.00,ENE,58,1.0,1.0,50,0.00,,,0.00,0,Wunderground v.1.15,2013-01-07 03:50:00,
2013-01-06 20:55:00,34.1,17.4,30.00,ENE,66,2.0,3.0,50,0.00,,,0.00,0,Wunderground v.1.15,2013-01-07 03:55:00,
2013-01-06 21:00:00,34.1,17.4,30.00,SE,140,4.0,12.0,50,0.00,,,0.00,0,Wunderground v.1.15,2013-01-07 04:00:00,
2013-01-06 21:10:00,34.6,16.9,30.00,SE,142,4.0,12.0,48,0.00,,,0.00,0,Wunderground v.1.15,2013-01-07 04:10:00,
2013-01-06 21:15:00,34.6,16.9,30.00,SE,142,3.0,12.0,48,0.00,,,0.00,0,Wunderground v.1.15,2013-01-07 04:15:00,
2013-01-06 21:20:00,34.6,16.4,30.00,SE,144,4.0,12.0,47,0.00,,,0.00,0,Wunderground v.1.15,2013-01-07 04:20:00,
2013-01-06 21:25:00,34.6,15.4,30.00,South,169,5.0,12.0,45,0.00,,,0.00,0,Wunderground v.1.15,2013-01-07 04:25:00,
2013-01-06 21:30:00,34.7,16.5,29.99,South,169,5.0,5.0,47,0.00,,,0.00,0,Wunderground v.1.15,2013-01-07 04:30:00,
2013-01-06 21:40:00,34.6,15.9,30.00,South,169,3.0,3.0,46,0.00,,,0.00,0,Wunderground v.1.15,2013-01-07 04:40:00,
2013-01-06 21:45:00,34.4,15.7,30.00,South,169,3.0,5.0,46,0.00,,,0.00,0,Wunderground v.1.15,2013-01-07 04:45:00,
2013-01-06 21:50:00,34.3,15.6,30.00,South,170,3.0,12.0,46,0.00,,,0.00,0,Wunderground v.1.15,2013-01-07 04:50:00,
2013-01-06 21:55:00,34.6,15.4,30.00,South,171,4.0,12.0,45,0.00,,,0.00,0,Wunderground v.1.15,2013-01-07 04:55:00,
2013-01-06 22:00:00,34.6,15.4,30.00,South,171,5.0,5.0,45,0.00,,,0.00,0,Wunderground v.1.15,2013-01-07 05:00:00,
2013-01-06 22:05:00,34.8,15.6,30.00,South,169,5.0,12.0,45,0.00,,,0.00,0,Wunderground v.1.15,2013-01-07 05:05:00,
2013-01-06 22:15:00,34.5,15.8,30.00,South,169,5.0,12.0,46,0.00,,,0.00,0,Wunderground v.1.15,2013-01-07 05:15:00,
2013-01-06 22:20:00,34.5,15.8,30.00,South,169,5.0,5.0,46,0.00,,,0.00,0,Wunderground v.1.15,2013-01-07 05:20:00,
2013-01-06 22:25:00,34.6,15.9,30.00,South,169,4.0,12.0,46,0.00,,,0.00,0,Wunderground v.1.15,2013-01-07 05:25:00,
2013-01-06 22:30:00,34.8,15.6,30.00,SSE,168,4.0,4.0,45,0.00,,,0.00,0,Wunderground v.1.15,2013-01-07 05:30:00,
2013-01-06 22:35:00,35.0,15.3,30.00,South,169,5.0,5.0,44,0.00,,,0.00,0,Wunderground v.1.15,2013-01-07 05:35:00,
2013-01-06 22:45:00,34.8,15.6,30.00,South,169,3.0,12.0,45,0.00,,,0.00,0,Wunderground v.1.15,2013-01-07 05:45:00,
2013-01-06 22:50:00,34.6,15.9,30.00,South,169,2.0,12.0,46,0.00,,,0.00,0,Wunderground v.1.15,2013-01-07 05:50:00,
2013-01-06 22:55:00,34.4,15.7,29.99,South,169,3.0,12.0,46,0.00,,,0.00,0,Wunderground v.1.15,2013-01-07 05:55:00,
2013-01-06 23:00:00,34.7,15.5,29.99,South,169,3.0,3.0,45,0.00,,,0.00,0,Wunderground v.1.15,2013-01-07 06:00:00,
2013-01-06 23:05:00,34.8,16.1,29.99,South,169,2.0,12.0,46,0.00,,,0.00,0,Wunderground v.1.15,2013-01-07 06:05:00,
2013-01-06 23:15:00,34.2,16.0,29.99,South,169,2.0,12.0,47,0.00,,,0.00,0,Wunderground v.1.15,2013-01-07 06:15:00,
2013-01-06 23:20:00,34.0,15.9,30.00,South,172,3.0,12.0,47,0.00,,,0.00,0,Wunderground v.1.15,2013-01-07 06:20:00,
2013-01-06 23:25:00,34.0,15.9,30.00,South,172,3.0,12.0,47,0.00,,,0.00,0,Wunderground v.1.15,2013-01-07 06:25:00,
2013-01-06 23:35:00,33.9,16.3,30.00,South,172,2.0,12.0,48,0.00,,,0.00,0,Wunderground v.1.15,2013-01-07 06:35:00,
2013-01-06 23:40:00,33.6,16.9,30.00,South,172,1.0,12.0,50,0.00,,,0.00,0,Wunderground v.1.15,2013-01-07 06:40:00,
2013-01-06 23:50:00,33.1,16.9,29.99,South,172,1.0,1.0,51,0.00,,,0.00,0,Wunderground v.1.15,2013-01-07 06:50:00,
2013-01-06 23:55:00,33.3,16.2,29.99,South,172,1.0,2.0,49,0.00,,,0.00,0,Wunderground v.1.15,2013-01-07 06:55:00,